timestamp,wind_dir_avg,wind_spd_avg,wind_spd_max_dir,wind_spd_gust,battery_voltage,lat,long
2023-03-28 00:04:00+00:00,346.0,7.21,347.0,8.04,12.33,47.59359,-54.27349
2023-03-28 00:14:01+00:00,337.0,5.95,330.0,6.96,12.33,47.59359,-54.27349
2023-03-28 00:24:01+00:00,349.0,7.19,352.0,7.89,12.33,47.59359,-54.27349
2023-03-28 00:34:01+00:00,356.0,8.06,354.0,8.84,12.33,47.59359,-54.27349
2023-03-28 00:44:01+00:00,352.0,7.84,354.0,9.15,12.33,47.59359,-54.27349
2023-03-28 00:54:01+00:00,354.0,7.07,354.0,8.2,12.33,47.59359,-54.27349
2023-03-28 01:04:01+00:00,353.0,7.92,354.0,8.73,12.33,47.59359,-54.27349
2023-03-28 01:14:00+00:00,351.0,8.86,353.0,9.81,12.25,47.59359,-54.27349
2023-03-28 01:24:00+00:00,351.0,7.62,353.0,8.47,12.25,47.59359,-54.27349
2023-03-28 01:34:00+00:00,355.0,7.55,356.0,8.48,12.25,47.59359,-54.27349
2023-03-28 01:44:00+00:00,356.0,8.09,357.0,9.5,12.25,47.59359,-54.27349
2023-03-28 01:54:00+00:00,357.0,8.43,358.0,9.34,12.25,47.59359,-54.27349
2023-03-28 02:04:00+00:00,358.0,9.25,359.0,10.06,12.25,47.59359,-54.27349
2023-03-28 02:14:00+00:00,6.0,7.27,11.0,8.52,12.25,47.59359,-54.27349
2023-03-28 02:24:00+00:00,3.0,7.01,2.0,7.96,12.25,47.59359,-54.27349
2023-03-28 02:34:00+00:00,4.0,7.69,0.0,9.28,12.25,47.59359,-54.27349
2023-03-28 02:44:00+00:00,2.0,6.91,4.0,7.66,12.25,47.59359,-54.27349
2023-03-28 02:54:00+00:00,2.0,7.23,3.0,8.22,12.25,47.59359,-54.27349
2023-03-28 03:04:00+00:00,4.0,7.29,3.0,8.57,12.25,47.59359,-54.27349
2023-03-28 03:14:00+00:00,6.0,7.66,3.0,8.76,12.25,47.59359,-54.27349
2023-03-28 03:24:00+00:00,359.0,7.55,1.0,8.6,12.25,47.59359,-54.27349
2023-03-28 03:34:00+00:00,356.0,6.97,356.0,7.87,12.25,47.59359,-54.27349
2023-03-28 03:44:00+00:00,357.0,6.14,358.0,7.13,12.25,47.59359,-54.27349
2023-03-28 03:54:00+00:00,354.0,6.16,355.0,6.96,12.25,47.59359,-54.27349
2023-03-28 04:04:00+00:00,354.0,6.65,356.0,7.27,12.25,47.59359,-54.27349
2023-03-28 04:14:01+00:00,357.0,6.55,357.0,7.37,12.17,47.59359,-54.27349
2023-03-28 04:24:01+00:00,2.0,8.12,7.0,9.11,12.17,47.59359,-54.27349
2023-03-28 04:34:01+00:00,2.0,10.14,3.0,12.09,12.17,47.59359,-54.27349
2023-03-28 04:44:01+00:00,7.0,9.94,1.0,12.11,12.17,47.59359,-54.27349
2023-03-28 04:54:01+00:00,15.0,8.52,13.0,9.52,12.17,47.59359,-54.27349
2023-03-28 05:04:01+00:00,358.0,8.29,0.0,9.19,12.17,47.59359,-54.27349
2023-03-28 05:14:00+00:00,354.0,6.86,353.0,8.04,12.17,47.59359,-54.27349
2023-03-28 05:24:00+00:00,0.0,6.88,2.0,8.09,12.17,47.59359,-54.27349
2023-03-28 05:34:00+00:00,348.0,6.56,337.0,7.13,12.17,47.59359,-54.27349
2023-03-28 05:44:00+00:00,349.0,6.57,351.0,7.44,12.17,47.59359,-54.27349
2023-03-28 05:54:00+00:00,344.0,7.35,335.0,8.16,12.17,47.59359,-54.27349
2023-03-28 06:04:00+00:00,351.0,7.55,349.0,8.17,12.17,47.59359,-54.27349
2023-03-28 06:14:00+00:00,352.0,6.66,351.0,7.55,12.17,47.59359,-54.27349
2023-03-28 06:24:00+00:00,351.0,6.59,350.0,7.6,12.17,47.59359,-54.27349
2023-03-28 06:34:00+00:00,351.0,6.98,338.0,7.92,12.17,47.59359,-54.27349
2023-03-28 06:44:00+00:00,352.0,7.3,356.0,8.17,12.17,47.59359,-54.27349
2023-03-28 06:54:00+00:00,352.0,8.45,351.0,9.2,12.17,47.59359,-54.27349
2023-03-28 07:04:00+00:00,356.0,8.95,355.0,9.87,12.17,47.59359,-54.27349
2023-03-28 07:14:00+00:00,356.0,8.01,359.0,8.71,12.09,47.59359,-54.27349
2023-03-28 07:24:00+00:00,357.0,7.35,355.0,7.98,12.09,47.59359,-54.27349
2023-03-28 07:34:00+00:00,357.0,7.91,354.0,9.02,12.09,47.59359,-54.27349
2023-03-28 07:44:00+00:00,1.0,6.72,8.0,8.16,12.09,47.59359,-54.27349
2023-03-28 07:54:00+00:00,3.0,6.01,359.0,7.91,12.09,47.59359,-54.27349
2023-03-28 08:04:00+00:00,356.0,9.48,357.0,11.24,12.09,47.59359,-54.27349
2023-03-28 08:14:00+00:00,0.0,9.63,1.0,11.15,12.09,47.59359,-54.27349
2023-03-28 08:24:00+00:00,359.0,10.93,4.0,13.15,12.09,47.59359,-54.27349
2023-03-28 08:34:00+00:00,356.0,10.52,358.0,11.82,12.09,47.59359,-54.27349
2023-03-28 08:44:00+00:00,354.0,9.14,352.0,10.28,12.09,47.59359,-54.27349
2023-03-28 08:54:00+00:00,353.0,9.62,350.0,11.67,12.09,47.59359,-54.27349
2023-03-28 09:04:00+00:00,358.0,8.44,356.0,9.47,12.09,47.59359,-54.27349
2023-03-28 09:14:01+00:00,357.0,8.67,358.0,9.65,12.09,47.59359,-54.27349
2023-03-28 09:24:01+00:00,2.0,8.51,358.0,10.27,12.09,47.59359,-54.27349
2023-03-28 09:34:01+00:00,2.0,9.17,5.0,10.85,12.09,47.59359,-54.27349
2023-03-28 09:44:01+00:00,1.0,8.44,1.0,9.63,12.09,47.59359,-54.27349
2023-03-28 09:54:01+00:00,3.0,8.94,3.0,10.03,12.09,47.59359,-54.27349
2023-03-28 10:04:01+00:00,4.0,10.22,8.0,11.36,12.09,47.59359,-54.27349
2023-03-28 10:14:00+00:00,2.0,8.69,359.0,9.98,12.09,47.59359,-54.27349
2023-03-28 10:24:00+00:00,5.0,8.98,4.0,9.67,12.09,47.59359,-54.27349
2023-03-28 10:34:00+00:00,6.0,7.38,3.0,8.37,12.09,47.59359,-54.27349
2023-03-28 10:44:00+00:00,8.0,6.91,4.0,8.65,12.09,47.59359,-54.27349
2023-03-28 10:54:00+00:00,6.0,7.38,359.0,8.41,12.09,47.59359,-54.27349
2023-03-28 11:04:00+00:00,11.0,8.06,16.0,9.39,12.09,47.59359,-54.27349
2023-03-28 11:14:00+00:00,12.0,8.13,14.0,10.75,12.49,47.59359,-54.27349
2023-03-28 11:24:00+00:00,9.0,7.7,8.0,8.83,12.49,47.59359,-54.27349
2023-03-28 11:34:00+00:00,15.0,9.78,14.0,10.98,12.49,47.59359,-54.27349
2023-03-28 11:44:00+00:00,15.0,8.46,16.0,9.45,12.49,47.59359,-54.27349
2023-03-28 11:54:00+00:00,11.0,6.09,18.0,6.76,12.49,47.59359,-54.27349
2023-03-28 12:04:00+00:00,20.0,7.55,14.0,9.0,12.49,47.59359,-54.27349
2023-03-28 12:14:01+00:00,3.0,8.08,2.0,8.96,13.53,47.59359,-54.27349
2023-03-28 12:24:01+00:00,9.0,9.35,9.0,10.6,13.53,47.59359,-54.27349
2023-03-28 12:34:01+00:00,1.0,8.84,358.0,10.02,13.53,47.59359,-54.27349
2023-03-28 12:44:01+00:00,354.0,10.45,354.0,11.48,13.53,47.59359,-54.27349
2023-03-28 12:54:01+00:00,354.0,11.52,354.0,12.62,13.53,47.59359,-54.27349
2023-03-28 13:04:01+00:00,0.0,10.23,358.0,11.12,13.53,47.59359,-54.27349
2023-03-28 13:14:00+00:00,3.0,8.12,3.0,8.9,13.68,47.59359,-54.27349
2023-03-28 13:24:00+00:00,4.0,6.61,2.0,7.18,13.68,47.59359,-54.27349
2023-03-28 13:34:00+00:00,356.0,5.56,355.0,6.33,13.68,47.59359,-54.27349
2023-03-28 13:44:00+00:00,1.0,6.26,3.0,6.95,13.68,47.59359,-54.27349
2023-03-28 13:54:00+00:00,359.0,6.1,1.0,6.69,13.68,47.59359,-54.27349
2023-03-28 14:04:00+00:00,2.0,6.14,3.0,6.98,13.68,47.59359,-54.27349
2023-03-28 14:14:00+00:00,354.0,5.23,359.0,5.72,14.32,47.59359,-54.27349
2023-03-28 14:24:00+00:00,11.0,5.61,15.0,6.3,14.32,47.59359,-54.27349
2023-03-28 14:34:00+00:00,11.0,4.82,12.0,5.68,14.32,47.59359,-54.27349
2023-03-28 14:44:00+00:00,15.0,5.9,13.0,6.71,14.32,47.59359,-54.27349
2023-03-28 14:54:00+00:00,19.0,6.74,21.0,7.86,14.32,47.59359,-54.27349
2023-03-28 15:04:00+00:00,25.0,6.46,28.0,7.05,14.32,47.59359,-54.27349
2023-03-28 15:14:00+00:00,24.0,6.45,26.0,7.19,13.92,47.59359,-54.27349
2023-03-28 15:24:00+00:00,17.0,6.85,18.0,7.84,13.92,47.59359,-54.27349
2023-03-28 15:34:00+00:00,25.0,6.65,26.0,7.64,13.92,47.59359,-54.27349
2023-03-28 15:44:00+00:00,27.0,6.78,31.0,7.99,13.92,47.59359,-54.27349
2023-03-28 15:54:00+00:00,27.0,6.74,31.0,8.01,13.92,47.59359,-54.27349
2023-03-28 16:04:00+00:00,28.0,5.16,26.0,5.55,13.92,47.59359,-54.27349
2023-03-28 16:14:01+00:00,34.0,5.28,32.0,5.8,13.6,47.59359,-54.27349
2023-03-28 16:24:01+00:00,55.0,10.1,60.0,11.91,13.6,47.59359,-54.27349
2023-03-28 16:34:01+00:00,60.0,10.3,63.0,11.23,13.6,47.59359,-54.27349
2023-03-28 16:44:01+00:00,40.0,5.27,40.0,5.87,13.6,47.59359,-54.27349
2023-03-28 16:54:01+00:00,50.0,5.04,50.0,5.63,13.6,47.59359,-54.27349
2023-03-28 17:04:01+00:00,51.0,4.75,47.0,5.74,13.6,47.59359,-54.27349
2023-03-28 17:14:00+00:00,56.0,8.28,60.0,10.86,13.68,47.59359,-54.27349
2023-03-28 17:24:00+00:00,26.0,6.06,28.0,6.43,13.68,47.59359,-54.27349
2023-03-28 17:34:00+00:00,37.0,5.04,44.0,5.48,13.68,47.59359,-54.27349
2023-03-28 17:44:00+00:00,31.0,7.28,33.0,7.88,13.68,47.59359,-54.27349
2023-03-28 17:54:00+00:00,34.0,5.9,35.0,6.46,13.68,47.59359,-54.27349
2023-03-28 18:04:00+00:00,36.0,4.39,29.0,5.55,13.68,47.59359,-54.27349
2023-03-28 18:14:01+00:00,34.0,4.95,37.0,5.54,13.68,47.59359,-54.27349
2023-03-28 18:24:01+00:00,38.0,5.54,35.0,6.25,13.68,47.59359,-54.27349
2023-03-28 18:34:01+00:00,58.0,6.97,64.0,10.15,13.68,47.59359,-54.27349
2023-03-28 18:44:01+00:00,54.0,5.7,68.0,8.93,13.68,47.59359,-54.27349
2023-03-28 18:54:01+00:00,55.0,4.45,56.0,4.82,13.68,47.59359,-54.27349
2023-03-28 19:04:01+00:00,59.0,3.88,57.0,4.31,13.68,47.59359,-54.27349
2023-03-28 20:14:00+00:00,35.0,4.15,34.0,4.81,13.29,47.59359,-54.27349
2023-03-28 20:24:00+00:00,35.0,5.4,34.0,5.92,13.29,47.59359,-54.27349
2023-03-28 20:34:00+00:00,41.0,6.61,54.0,7.71,13.29,47.59359,-54.27349
2023-03-28 20:44:00+00:00,46.0,7.99,58.0,11.26,13.29,47.59359,-54.27349
2023-03-28 20:54:00+00:00,45.0,7.68,56.0,10.45,13.29,47.59359,-54.27349
2023-03-28 21:04:00+00:00,45.0,8.13,56.0,11.04,13.29,47.59359,-54.27349
2023-03-28 21:14:00+00:00,46.0,9.93,54.0,12.12,13.05,47.59359,-54.27349
2023-03-28 21:24:00+00:00,32.0,7.37,31.0,8.1,13.05,47.59359,-54.27349
2023-03-28 21:34:00+00:00,32.0,6.38,32.0,6.82,13.05,47.59359,-54.27349
2023-03-28 21:44:00+00:00,33.0,5.25,33.0,5.63,13.05,47.59359,-54.27349
2023-03-28 21:54:00+00:00,29.0,6.59,30.0,7.17,13.05,47.59359,-54.27349
2023-03-28 22:04:00+00:00,34.0,7.32,33.0,8.01,13.05,47.59359,-54.27349
2023-03-28 22:14:00+00:00,30.0,6.53,30.0,7.01,12.49,47.59359,-54.27349
2023-03-28 22:24:00+00:00,32.0,7.05,33.0,7.69,12.49,47.59359,-54.27349
2023-03-28 22:34:00+00:00,36.0,5.37,31.0,6.42,12.49,47.59359,-54.27349
2023-03-28 22:44:00+00:00,35.0,5.46,32.0,5.94,12.49,47.59359,-54.27349
2023-03-28 22:54:00+00:00,39.0,4.64,43.0,5.21,12.49,47.59359,-54.27349
2023-03-28 23:04:00+00:00,33.0,4.97,32.0,5.59,12.49,47.59359,-54.27349
2023-03-28 23:14:00+00:00,32.0,5.09,32.0,5.52,12.33,47.59359,-54.27349
2023-03-28 23:24:00+00:00,49.0,9.98,56.0,12.3,12.33,47.59359,-54.27349
2023-03-28 23:34:00+00:00,52.0,11.09,52.0,12.26,12.33,47.59359,-54.27349
2023-03-28 23:44:00+00:00,42.0,7.24,59.0,10.04,12.33,47.59359,-54.27349
2023-03-28 23:54:00+00:00,32.0,7.18,31.0,7.9,12.33,47.59359,-54.27349
